DW9593 Weather Reports


Display with metric or nautical units.
time (UTC)temp
F
wind
direction
speed
MPH
gust
MPH
rain 1hr
in
rain 24hr
in
rain mn
in
humidity
%
barometer
mb
20240524111516 64 0.0 0.0 0.00 0.00 0.00 25 1011.9
20240524110515 64 0.0 0.0 0.00 0.00 0.00 25 1012.0
20240524105515 64 0.0 0.0 0.00 0.00 0.00 25 1012.0
20240524104515 64 0.0 0.0 0.00 0.00 0.00 25 1012.0
20240524103515 64 0.0 0.0 0.00 0.00 0.00 25 1012.1
20240524102515 64 0.0 0.0 0.00 0.00 0.00 25 1012.2
20240524101515 65 0.0 0.0 0.00 0.00 0.00 25 1012.2
20240524100515 65 0.0 0.0 0.00 0.00 0.00 24 1012.2
20240524095516 65 0.0 0.0 0.00 0.00 0.00 24 1012.1
20240524094556 65 0.0 0.0 0.00 0.00 0.00 23 1012.2
20240524093517 65 0.0 0.0 0.00 0.00 0.00 23 1012.3
20240524092536 65 0.0 0.0 0.00 0.00 0.00 22 1012.4
20240524091517 66 0.0 0.0 0.00 0.00 0.00 22 1012.2
20240524090536 66 0.0 0.0 0.00 0.00 0.00 21 1012.2
20240524085516 66 0.0 0.0 0.00 0.00 0.00 21 1012.1
20240524084516 67 0.0 0.0 0.00 0.00 0.00 20 1012.1
20240524083516 67 0.0 0.0 0.00 0.00 0.00 19 1012.1
20240524082516 68 0.0 0.0 0.00 0.00 0.00 18 1012.0
20240524081516 68 0.0 0.0 0.00 0.00 0.00 18 1012.1
20240524080516 68 0.0 0.0 0.00 0.00 0.00 17 1012.1
20240524075516 69 0.0 0.0 0.00 0.00 0.00 17 1012.1
20240524074537 69 360 0.0 2.0 0.00 0.00 0.00 17 1012.0
20240524073516 69 360 0.0 1.0 0.00 0.00 0.00 16 1012.2
20240524072536 69 360 0.0 2.0 0.00 0.00 0.00 16 1012.0
20240524071516 69 360 0.0 2.0 0.00 0.00 0.00 16 1012.2
20240524070516 70 360 0.0 1.0 0.00 0.00 0.00 16 1012.2
20240524065515 71 360 0.0 2.0 0.00 0.00 0.00 16 1012.2
20240524064515 71 360 0.0 4.0 0.00 0.00 0.00 17 1012.1
20240524063516 72 360 0.0 3.0 0.00 0.00 0.00 17 1012.1
20240524062515 73 360 0.0 3.0 0.00 0.00 0.00 17 1012.2
20240524061515 73 360 0.0 2.0 0.00 0.00 0.00 17 1012.2
20240524060515 74 0.0 2.0 0.00 0.00 0.00 16 1012.3
20240524055515 75 0.0 1.0 0.00 0.00 0.00 16 1012.3
20240524054515 75 360 0.0 3.0 0.00 0.00 0.00 16 1012.3
20240524053515 76 360 0.0 3.0 0.00 0.00 0.00 15 1012.3
20240524052515 76 360 0.0 1.0 0.00 0.00 0.00 15 1012.3
20240524051516 77 360 0.0 3.0 0.00 0.00 0.00 14 1012.4
20240524050515 77 360 0.0 4.0 0.00 0.00 0.00 14 1012.4
20240524045515 78 360 0.0 4.0 0.00 0.00 0.00 13 1012.2
20240524044515 78 360 0.0 2.0 0.00 0.00 0.00 13 1012.1
20240524043535 78 360 0.0 3.0 0.00 0.00 0.00 11 1011.9
20240524042515 79 360 0.0 5.0 0.00 0.00 0.00 10 1011.9
20240524041515 79 360 0.0 3.0 0.00 0.00 0.00 9 1011.7
20240524040516 80 0.0 0.0 0.00 0.00 0.00 8 1011.6
20240524035515 80 360 0.0 3.0 0.00 0.00 0.00 8 1011.4
20240524034515 81 360 1.0 3.0 0.00 0.00 0.00 8 1011.3
20240524033516 81 360 2.0 6.0 0.00 0.00 0.00 7 1011.2
20240524032515 82 360 1.0 4.0 0.00 0.00 0.00 7 1011.0
20240524031515 83 360 0.0 4.0 0.00 0.00 0.00 6 1010.9
20240524030516 83 360 2.0 5.0 0.00 0.00 0.00 6 1010.7
20240524025515 84 360 3.0 8.0 0.00 0.00 0.00 6 1010.4
20240524024535 84 360 4.0 9.0 0.00 0.00 0.00 6 1010.4
20240524023515 85 360 4.0 12.0 0.00 0.00 0.00 5 1010.1
20240524022615 86 360 4.0 10.0 0.00 0.00 0.00 5 1009.9
20240524021515 86 360 5.0 13.0 0.00 0.00 0.00 5 1009.9
20240524020515 87 360 7.0 14.0 0.00 0.00 0.00 5 1009.6
20240524015515 87 360 6.0 12.0 0.00 0.00 0.00 5 1009.5
20240524014515 88 360 5.0 11.0 0.00 0.00 0.00 5 1009.2
20240524013515 88 360 6.0 12.0 0.00 0.00 0.00 4 1009.1
20240524012515 89 360 8.0 16.0 0.00 0.00 0.00 4 1008.9
20240524011535 89 360 8.0 14.0 0.00 0.00 0.00 4 1008.8
20240524010516 89 360 8.0 13.0 0.00 0.00 0.00 4 1008.8
20240524005515 91 360 9.0 15.0 0.00 0.00 0.00 4 1008.8
20240524004515 91 360 5.0 15.0 0.00 0.00 0.00 4 1008.6
20240524003535 91 359 11.0 18.0 0.00 0.00 0.00 4 1008.5
20240524002515 91 360 8.0 17.0 0.00 0.00 0.00 4 1008.5
20240524001515 91 360 7.0 16.0 0.00 0.00 0.00 4 1008.5
20240524000515 92 360 6.0 15.0 0.00 0.00 0.00 4 1008.6
20240523235515 91 359 7.0 17.0 0.00 0.00 0.00 4 1008.6
20240523234515 91 360 7.0 20.0 0.00 0.00 0.00 4 1008.7
20240523233515 92 360 7.0 15.0 0.00 0.00 0.00 3 1008.9
20240523232515 92 360 7.0 18.0 0.00 0.00 0.00 3 1008.8
20240523231535 92 360 7.0 18.0 0.00 0.00 0.00 4 1009.0
20240523230515 92 360 6.0 14.0 0.00 0.00 0.00 3 1009.2
20240523225515 92 360 5.0 19.0 0.00 0.00 0.00 4 1009.2
20240523224515 92 360 4.0 14.0 0.00 0.00 0.00 4 1009.1
20240523223515 92 360 9.0 19.0 0.00 0.00 0.00 4 1009.2
20240523222515 92 360 8.0 17.0 0.00 0.00 0.00 4 1009.2
20240523221515 92 360 7.0 17.0 0.00 0.00 0.00 4 1009.4
20240523220535 92 358 7.0 12.0 0.00 0.00 0.00 4 1009.5
20240523215515 93 360 3.0 11.0 0.00 0.00 0.00 4 1009.6
20240523214515 93 360 4.0 15.0 0.00 0.00 0.00 4 1010.0
20240523213515 93 360 3.0 10.0 0.00 0.00 0.00 5 1010.1
20240523212517 92 360 0.0 11.0 0.00 0.00 0.00 5 1010.3
20240523211515 91 360 3.0 11.0 0.00 0.00 0.00 5 1010.4
20240523210517 90 360 3.0 14.0 0.00 0.00 0.00 5 1010.8
20240523205517 90 360 5.0 17.0 0.00 0.00 0.00 5 1010.8
20240523204518 90 355 0.0 6.0 0.00 0.00 0.00 6 1010.9
20240523203517 89 360 0.0 10.0 0.00 0.00 0.00 6 1011.0
20240523202517 88 360 5.0 11.0 0.00 0.00 0.00 6 1011.2
20240523201517 89 359 2.0 11.0 0.00 0.00 0.00 6 1011.2
20240523200517 88 360 2.0 8.0 0.00 0.00 0.00 6 1011.1
20240523195517 87 360 1.0 9.0 0.00 0.00 0.00 7 1011.2
20240523194517 86 360 2.0 9.0 0.00 0.00 0.00 7 1011.3
20240523193517 86 0 3.0 9.0 0.00 0.00 0.00 7 1011.5
20240523192517 86 0 3.0 11.0 0.00 0.00 0.00 7 1011.6
20240523191517 86 360 2.0 9.0 0.00 0.00 0.00 6 1011.6
20240523190517 86 360 2.0 4.0 0.00 0.00 0.00 6 1011.8
20240523185518 86 360 3.0 13.0 0.00 0.00 0.00 6 1011.9
20240523184517 84 0 0.0 3.0 0.00 0.00 0.00 7 1011.8
20240523183517 85 360 2.0 8.0 0.00 0.00 0.00 6 1012.0
20240523182517 84 360 2.0 8.0 0.00 0.00 0.00 7 1012.2
20240523181517 85 360 1.0 5.0 0.00 0.00 0.00 7 1012.3
20240523180517 84 360 3.0 11.0 0.00 0.00 0.00 6 1012.2
20240523175517 84 360 1.0 5.0 0.00 0.00 0.00 7 1012.5
20240523174517 83 360 1.0 7.0 0.00 0.00 0.00 7 1012.5
20240523173517 83 360 2.0 6.0 0.00 0.00 0.00 7 1012.8
20240523172517 82 360 2.0 9.0 0.00 0.00 0.00 7 1012.7
20240523171537 81 360 3.0 12.0 0.00 0.00 0.00 8 1012.8
20240523170517 82 360 5.0 12.0 0.00 0.00 0.00 7 1012.8
20240523165515 82 360 3.0 11.0 0.00 0.00 0.00 7 1012.9
20240523164537 82 360 0.0 2.0 0.00 0.00 0.00 7 1013.2
20240523163517 81 360 1.0 9.0 0.00 0.00 0.00 7 1013.5
20240523162517 81 360 0.0 3.0 0.00 0.00 0.00 7 1013.5
20240523161517 81 360 0.0 6.0 0.00 0.00 0.00 7 1013.6
20240523160517 80 360 0.0 1.0 0.00 0.00 0.00 7 1013.5
20240523155517 80 360 1.0 4.0 0.00 0.00 0.00 7 1013.6
20240523154517 79 0.0 2.0 0.00 0.00 0.00 7 1013.6
20240523153537 79 0.0 0.0 0.00 0.00 0.00 6 1013.6
20240523152517 78 0.0 0.0 0.00 0.00 0.00 7 1013.6
20240523151517 78 360 0.0 2.0 0.00 0.00 0.00 7 1013.5
20240523150517 77 0.0 0.0 0.00 0.00 0.00 6 1013.5
20240523145517 75 0.0 0.0 0.00 0.00 0.00 9 1013.3
20240523144517 74 0.0 0.0 0.00 0.00 0.00 9 1013.2
20240523143537 72 0.0 0.0 0.00 0.00 0.00 12 1013.2
20240523142537 71 0.0 0.0 0.00 0.00 0.00 13 1012.9
20240523141537 69 0.0 0.0 0.00 0.00 0.00 15 1012.9
20240523140517 68 0.0 0.0 0.00 0.00 0.00 16 1012.6
20240523135516 66 0.0 0.0 0.00 0.00 0.00 17 1012.6
20240523134517 65 0.0 0.0 0.00 0.00 0.00 18 1012.6
20240523133517 63 0.0 0.0 0.00 0.00 0.00 18 1012.4
20240523132517 62 0.0 0.0 0.00 0.00 0.00 17 1012.3
20240523131516 61 0.0 0.0 0.00 0.00 0.00 16 1012.2
20240523130517 60 0.0 0.0 0.00 0.00 0.00 14 1012.0
20240523125517 59 0.0 0.0 0.00 0.00 0.00 15 1011.9
20240523124537 59 0.0 0.0 0.00 0.00 0.00 15 1011.8
20240523123516 58 0.0 0.0 0.00 0.00 0.00 14 1011.5
20240523122537 58 0.0 0.0 0.00 0.00 0.00 15 1011.5
20240523121516 57 0.0 0.0 0.00 0.00 0.00 17 1011.5
20240523120517 57 0.0 0.0 0.00 0.00 0.00 17 1011.7
20240523115517 58 0.0 0.0 0.00 0.00 0.00 16 1011.5
20240523114516 58 0.0 0.0 0.00 0.00 0.00 16 1011.7
20240523113516 59 0.0 0.0 0.00 0.00 0.00 16 1011.8
20240523112516 60 0.0 0.0 0.00 0.00 0.00 15 1011.9